Hoquiam, WA
on Monday, December 3, 2012

Monday
Previous Day Next Day
Daily Summary
 ActualAverageRecord
Temperature
Mean Temperature °F 42°F  
Max Temperature 52°F 47°F 57°F (1979)
Min Temperature 46°F 37°F 27°F (1954)
Degree Days
Heating Degree Days 16 23  
Month to date heating degree days 67  
Cooling Degree Days 0 0  
Month to date cooling degree days 0  
Year to date cooling degree days 23  
Moisture
Dew Point 47°F   
Average Humidity 91    
Maximum Humidity 97    
Minimum Humidity 82    
Precipitation
Precipitation 0.89 in 0.35 in 1.93 in (1982)
Month to date precipitation 1.05  
Year to date precipitation 58.64  
Wind
Wind Speed 15 mph   
Max Wind Speed 23 mph   
Max Gust Speed 31 mph   
Visibility 8 miles   
Events Rain   

Key: T is trace of precipitation, MM is missing value
Source: NWS Daily Summary
Time(PST)TemperatureDew PointHumidity Pressure Visibility Wind DirectionWind SpeedGust SpeedPrecipitationEvents Conditions
12:10 AM 46.4°F 42.8°F 87% 29.79 in 2.0 miles SSW 20.7 mph 31.1 mph 0.12 in Rain Rain
12:16 AM 48.2°F 44.6°F 87% 29.79 in 3.0 miles South 19.6 mph 31.1 mph 0.13 in Rain Light Rain
12:46 AM 50.0°F 46.4°F 87% 29.80 in 10.0 miles South 21.9 mph 31.1 mph 0.15 in   Mostly Cloudy
12:53 AM 50.0°F 46.0°F 86% 29.81 in 10.0 miles South 20.7 mph - 0.15 in   Mostly Cloudy
1:22 AM 46.4°F 42.8°F 87% 29.81 in 9.0 miles SW 15.0 mph - 0.02 in Rain Light Rain
1:42 AM 50.0°F 44.6°F 82% 29.81 in 10.0 miles South 23.0 mph 27.6 mph 0.02 in   Mostly Cloudy
1:53 AM 50.0°F 45.0°F 83% 29.83 in 10.0 miles South 21.9 mph 29.9 mph 0.02 in   Mostly Cloudy
2:53 AM 50.0°F 46.0°F 86% 29.85 in 8.0 miles South 23.0 mph 28.8 mph 0.03 in Rain Light Rain
3:09 AM 46.4°F 42.8°F 87% 29.85 in 2.0 miles WSW 16.1 mph 31.1 mph 0.14 in Rain Heavy Rain
3:25 AM 48.2°F 46.4°F 93% 29.85 in 6.0 miles SSW 23.0 mph 29.9 mph 0.19 in Rain Light Rain
3:34 AM 48.2°F 44.6°F 87% 29.85 in 10.0 miles SW 23.0 mph - 0.19 in   Overcast
3:53 AM 48.0°F 45.0°F 89% 29.86 in 10.0 miles SSW 19.6 mph - 0.20 in Rain Light Rain
4:53 AM 48.0°F 46.0°F 93% 29.89 in 10.0 miles SSW 16.1 mph - 0.05 in   Overcast
5:53 AM 48.9°F 46.9°F 93% 29.90 in 10.0 miles South 9.2 mph - N/A   Overcast
6:13 AM 48.2°F 46.4°F 93% 29.89 in 9.0 miles South 10.4 mph - 0.00 in Rain Light Rain
6:53 AM 48.2°F 46.4°F 93% 29.91 in 10.0 miles South 8.1 mph - N/A   Overcast
7:38 AM 48.2°F 46.4°F 93% 29.92 in 10.0 miles SSE 5.8 mph - N/A   Overcast
7:53 AM 48.0°F 46.0°F 93% 29.94 in 10.0 miles Calm Calm - 0.00 in Rain Light Rain
8:53 AM 48.0°F 46.0°F 93% 29.95 in 10.0 miles SSE 11.5 mph - 0.01 in   Overcast
9:53 AM 48.9°F 46.9°F 93% 29.96 in 10.0 miles East 5.8 mph - N/A   Mostly Cloudy
10:17 AM 48.2°F 46.4°F 93% 29.96 in 10.0 miles SE 6.9 mph - N/A   Mostly Cloudy
10:53 AM 50.0°F 46.9°F 89% 29.98 in 10.0 miles SE 6.9 mph - N/A   Overcast
11:19 AM 50.0°F 46.4°F 87% 29.96 in 10.0 miles SE 5.8 mph - N/A   Overcast
11:53 AM 50.0°F 48.0°F 93% 29.97 in 10.0 miles East 5.8 mph - N/A   Overcast
12:25 PM 50.0°F 48.2°F 94% 29.95 in 9.0 miles East 8.1 mph - 0.01 in Rain Light Rain
12:53 PM 50.0°F 48.0°F 93% 29.96 in 10.0 miles East 6.9 mph - 0.01 in Rain Light Rain
1:28 PM 50.0°F 48.2°F 94% 29.93 in 2.5 miles East 4.6 mph - 0.05 in Rain Rain
1:32 PM 50.0°F 48.2°F 94% 29.93 in 1.8 miles ESE 4.6 mph - 0.06 in Rain Rain
1:40 PM 50.0°F 48.2°F 94% 29.92 in 3.0 miles ESE 5.8 mph - 0.07 in Rain Light Rain
1:53 PM 50.0°F 48.9°F 96% 29.93 in 6.0 miles East 6.9 mph - 0.08 in Rain Light Rain
2:04 PM 50.0°F 48.2°F 94% 29.91 in 10.0 miles East 8.1 mph - 0.00 in   Overcast
2:30 PM 51.8°F 48.2°F 88% 29.91 in 10.0 miles SSE 15.0 mph 19.6 mph 0.00 in   Overcast
2:53 PM 51.1°F 48.9°F 92% 29.91 in 10.0 miles SSE 9.2 mph - 0.00 in   Overcast
3:53 PM 52.0°F 48.9°F 89% 29.90 in 6.0 miles South 15.0 mph - 0.02 in Rain Light Rain
4:53 PM 52.0°F 48.9°F 89% 29.88 in 9.0 miles SSE 15.0 mph - 0.00 in Rain Light Rain
5:53 PM 52.0°F 48.9°F 89% 29.86 in 7.0 miles SSE 15.0 mph - 0.00 in Rain Light Rain
6:53 PM 51.1°F 48.9°F 92% 29.83 in 4.0 miles SSE 15.0 mph - 0.05 in Rain Light Rain
7:53 PM 51.1°F 48.0°F 89% 29.79 in 9.0 miles SE 12.7 mph - 0.04 in Rain Light Rain
8:08 PM 51.8°F 48.2°F 88% 29.77 in 9.0 miles East 13.8 mph - 0.00 in Rain Light Rain
8:53 PM 50.0°F 48.0°F 93% 29.74 in 8.0 miles East 13.8 mph - 0.02 in Rain Light Rain
9:10 PM 50.0°F 48.2°F 94% 29.72 in 10.0 miles ENE 11.5 mph - 0.01 in Rain Light Rain
9:53 PM 48.9°F 48.0°F 97% 29.70 in 8.0 miles East 12.7 mph - 0.03 in Rain Light Rain
10:53 PM 48.9°F 46.9°F 93% 29.63 in 6.0 miles East 15.0 mph - 0.07 in Rain Light Rain
11:53 PM 48.9°F 46.0°F 90% 29.59 in 5.0 miles East 13.8 mph - 0.11 in Rain Rain
Moon Phase
Dec. 03 Dec. 06 Dec. 13 Dec. 20 Dec. 28
Sunrise:07:43 AM (PST) Moon Rise:09:31 PM (PST)12/3
Sunset:04:27 PM (PST) Moon Set:11:00 AM (PST)12/3

Copyright © 2014 The Weather Underground, Inc.